DateTimeUTC,F1_A11,F1_S11,BsB_S11,BsG_S11,BsR_S11,BbsB_S11,BbsG_S11,BbsR_S11,BaB_A11,BaG_A11,BaR_A11,T_S11,U_S11,P_S11,T1_A11
2020-08-19T00:00:00Z,00000388,20000608,,,,,,,,,,24.0,02.5,0680.9,30.9
2020-08-19T00:01:00Z,00000388,20000608,,,,,,,,,,24.0,02.6,0680.9,30.9
2020-08-19T00:02:00Z,00000388,20000608,,,,,,,,,,24.0,02.6,0680.9,30.9
2020-08-19T00:03:00Z,00000388,60000608,,,,,,,,,,24.0,02.6,0680.9,30.9
2020-08-19T00:04:00Z,00000388,40000608,0003.99,0002.47,0000.91,0000.50,0000.39,0000.27,0000.32,0000.13,-000.03,23.8,02.5,0681.8,30.9
2020-08-19T00:05:00Z,00000388,00000608,0002.84,0001.70,0001.48,0001.38,0000.56,-000.16,0000.01,0000.01,0000.19,23.8,02.5,0681.8,30.9
2020-08-19T00:06:00Z,00000388,00000608,0002.65,0003.28,0001.58,0001.44,0000.72,0000.33,0001.53,0001.31,0000.94,23.7,04.1,0682.0,30.9
2020-08-19T00:07:00Z,00000388,00000608,0002.80,0002.49,0001.63,0001.06,0000.38,0000.37,-000.46,-000.36,-000.11,23.7,03.5,0682.0,30.9
2020-08-19T00:08:00Z,00000388,00000608,0004.22,0003.44,0002.07,0001.03,0000.57,0000.13,0002.41,0002.06,0001.41,23.7,04.6,0682.1,30.9
2020-08-19T00:09:00Z,00000388,00000608,0003.67,0003.33,0001.28,0001.07,0000.49,-000.08,-000.93,-000.75,-000.65,23.8,04.6,0682.1,30.9
2020-08-19T00:10:00Z,00000388,00000608,0003.43,0002.63,0001.72,0001.12,0000.23,0000.28,-000.49,-000.44,-000.21,23.8,03.7,0682.1,30.9
2020-08-19T00:11:00Z,00000388,00000608,0002.39,0002.30,0001.27,0001.52,0000.38,0000.08,-000.15,-000.16,-000.10,23.8,03.4,0682.1,30.9
2020-08-19T00:12:00Z,00000388,00000608,0002.97,0003.16,0001.82,0000.69,0000.36,-000.06,-000.03,0000.07,-000.02,23.8,03.2,0682.0,30.9
2020-08-19T00:13:00Z,00000388,00000608,0004.48,0002.89,0002.08,0001.20,0000.41,0000.63,0000.09,0000.04,0000.22,23.7,03.1,0682.0,30.9
2020-08-19T00:14:00Z,00000388,00000608,0003.61,0003.15,0001.54,0000.92,0000.44,0000.03,0000.16,0000.03,0000.02,23.7,03.0,0682.0,30.9
2020-08-19T00:15:00Z,00000388,00000608,0002.45,0002.39,0001.00,0001.29,0000.21,-000.04,0000.37,0000.51,0000.27,23.7,03.2,0682.0,30.9
2020-08-19T00:16:00Z,00000388,00000608,0001.94,0002.49,0001.24,0000.11,0000.41,0000.40,-000.22,-000.34,-000.13,23.7,03.2,0682.0,30.9
2020-08-19T00:17:00Z,00000388,00000608,0003.08,0002.93,0001.68,0000.90,0000.33,0000.15,0000.10,0000.15,0000.05,23.7,03.0,0681.9,30.9
2020-08-19T00:18:00Z,00000388,00000608,0004.04,0002.35,0001.52,0000.37,0000.15,0000.28,0000.21,0000.10,0000.21,23.7,03.1,0681.9,30.9
2020-08-19T00:19:00Z,00000388,00000608,0003.71,0002.36,0001.67,0001.45,0000.51,0000.13,0000.02,0000.12,0000.05,23.7,03.1,0681.8,30.9
2020-08-19T00:20:00Z,00000388,00000608,0003.07,0002.68,0001.30,0000.88,0000.17,-000.17,0000.12,0000.23,0000.04,23.6,03.1,0681.8,30.9
2020-08-19T00:21:00Z,00000388,00000608,0002.85,0002.99,0001.64,0001.52,0000.11,-000.23,0000.28,-000.02,0000.18,23.6,03.2,0681.8,30.9
2020-08-19T00:22:00Z,00000388,00000608,0001.05,0000.49,0000.51,0001.41,0000.09,0000.25,-000.24,0000.08,-000.11,23.7,03.1,0681.9,30.9
2020-08-19T00:23:00Z,00000388,00000608,0003.27,0002.08,0001.63,0001.82,0000.58,0000.03,-000.04,-000.13,0000.01,23.7,02.9,0681.9,30.9
2020-08-19T00:24:00Z,00000388,00000608,0003.25,0002.68,0001.28,0001.27,0000.54,0000.61,0000.16,0000.06,0000.12,23.7,02.8,0681.9,30.9
2020-08-19T00:25:00Z,00000388,00000608,0001.75,0001.74,-000.02,0000.18,0000.03,0000.00,-000.20,-000.23,-000.06,23.7,02.9,0681.9,30.9
2020-08-19T00:26:00Z,00000388,00000608,0003.68,0002.10,0001.13,0001.77,0000.88,0000.31,0000.16,0000.34,0000.05,23.7,02.8,0681.9,30.9
2020-08-19T00:27:00Z,00000388,00000608,0002.31,0002.53,0001.18,0000.66,0000.49,-000.04,0000.00,-000.01,-000.06,23.7,02.7,0681.9,30.9
2020-08-19T00:28:00Z,00000388,00000608,0001.92,0001.96,0000.73,0000.74,0000.44,-000.22,-000.02,-000.08,0000.08,23.7,02.7,0681.8,30.9
2020-08-19T00:29:00Z,00000388,00000608,0001.92,0001.57,0001.49,0001.11,0000.45,0000.28,0000.37,0000.18,0000.06,23.7,02.7,0681.8,30.9
2020-08-19T00:30:00Z,00000388,00000608,0002.53,0001.89,0001.34,0001.37,0000.33,0000.43,-000.20,-000.05,-000.05,23.7,02.7,0681.9,30.9
2020-08-19T00:31:00Z,00000388,00000608,0001.07,0002.07,0000.93,0000.82,0000.19,0000.20,-000.20,-000.04,0000.05,23.7,02.5,0681.9,30.9
2020-08-19T00:32:00Z,00000388,00000608,0002.48,0001.62,0000.86,0001.38,-000.06,0000.14,0000.07,0000.04,0000.07,23.6,02.4,0681.9,30.9
2020-08-19T00:33:00Z,00000388,00000608,0003.57,0001.73,0000.37,0001.23,0000.20,-000.57,-000.10,-000.09,-000.05,23.6,02.4,0681.9,30.9
2020-08-19T00:34:00Z,00000388,00000608,0001.22,0001.66,0000.91,0001.19,0000.02,-000.27,-000.01,-000.15,-000.14,23.6,02.4,0681.9,30.9
2020-08-19T00:35:00Z,00000388,00000608,0001.05,0001.01,0000.60,0000.59,0000.13,0000.33,-000.17,0000.05,0000.01,23.6,02.3,0681.9,30.9
2020-08-19T00:36:00Z,00000388,00000608,0002.04,0001.39,0000.77,0000.34,0000.40,-000.06,0000.09,-000.14,-000.11,23.6,02.2,0681.9,30.9
2020-08-19T00:37:00Z,00000388,00000608,0001.79,0001.26,0000.52,0001.47,0000.14,0000.36,0000.10,0000.17,0000.11,23.6,02.2,0681.9,30.9
2020-08-19T00:38:00Z,00000388,00000608,0002.11,0001.76,0001.17,0000.92,0000.54,-000.14,-000.03,0000.13,0000.10,23.6,02.2,0681.9,30.9
2020-08-19T00:39:00Z,00000388,00000608,0002.08,0001.33,0000.72,0001.08,0000.35,0000.13,0000.07,0000.07,0000.16,23.6,02.2,0681.9,30.9
2020-08-19T00:40:00Z,00000388,00000608,0000.56,0001.08,0000.77,0001.57,0000.25,-000.13,0000.12,-000.04,-000.00,23.6,02.2,0681.9,30.9
2020-08-19T00:41:00Z,00000388,00000608,0001.91,0001.78,0000.84,0000.52,0000.23,0000.28,0000.09,0000.12,-000.20,23.6,02.1,0681.8,30.9
2020-08-19T00:42:00Z,00000388,00000608,0002.92,0002.38,0001.11,0001.41,0000.32,0000.33,0000.50,0000.51,0000.45,23.6,02.3,0681.8,30.9
2020-08-19T00:43:00Z,00000388,00000608,0002.77,0002.36,0001.17,0000.91,0000.43,0000.31,-000.01,-000.11,0000.01,23.6,02.5,0681.8,30.9
2020-08-19T00:44:00Z,00000388,00000608,0002.44,0001.23,0000.43,0001.59,-000.02,-000.17,-000.15,-000.03,0000.01,23.6,02.4,0681.8,30.9
2020-08-19T00:45:00Z,00000388,00000608,0002.40,0001.84,0000.82,0001.11,0000.52,-000.48,-000.00,-000.05,0000.04,23.6,02.3,0681.8,30.9
2020-08-19T00:46:00Z,00000388,00000608,0000.94,0001.40,0000.35,0000.71,0000.08,-000.09,0000.13,0000.07,0000.17,23.6,02.3,0681.8,30.9
2020-08-19T00:47:00Z,00000388,00000608,0002.59,0001.52,0000.23,0000.69,0000.29,-000.10,0000.03,0000.17,-000.09,23.6,02.4,0681.8,30.9
2020-08-19T00:48:00Z,00000388,00000608,0001.40,0001.21,0000.23,0000.66,0000.33,-000.29,0000.17,0000.05,0000.06,23.6,02.4,0681.8,30.9
2020-08-19T00:49:00Z,00000388,00000608,0001.44,0001.65,0001.38,0000.65,-000.05,-000.05,0000.22,0000.09,0000.11,23.6,02.4,0681.8,30.9
2020-08-19T00:50:00Z,00000388,00000608,0000.07,0000.16,0000.16,0000.89,0000.21,-000.21,-000.13,0000.17,0000.15,23.6,02.5,0681.9,30.9
2020-08-19T00:51:00Z,00000388,00000608,0001.01,0000.28,0000.19,0001.23,0000.30,0000.10,-000.13,-000.35,-000.18,23.6,02.5,0681.9,30.9
2020-08-19T00:52:00Z,00000388,00000608,0000.63,0000.99,-000.34,0000.54,0000.01,0000.02,-000.14,-000.14,-000.14,23.5,02.4,0681.9,30.9
2020-08-19T00:53:00Z,00000388,00000608,0002.55,0002.02,0000.24,0000.79,-000.01,-000.02,0000.42,0000.28,0000.34,23.6,02.3,0681.9,30.9
2020-08-19T00:54:00Z,00000388,00000608,0000.78,0001.80,0001.26,0000.50,0000.24,0000.54,-000.23,0000.07,-000.19,23.6,02.4,0681.9,30.9
2020-08-19T00:55:00Z,00000388,00000608,0001.59,0001.40,0001.04,0001.27,0000.19,0000.06,0000.11,-000.09,0000.13,23.6,02.3,0681.9,30.9
2020-08-19T00:56:00Z,00000388,00000608,0001.58,0001.63,0000.71,0001.12,0000.50,-000.33,0000.12,0000.06,-000.00,23.6,02.3,0681.9,30.9
2020-08-19T00:57:00Z,00000388,40000608,,,,,,,,,,23.7,02.4,0682.0,30.9
2020-08-19T00:58:00Z,00000388,60000608,,,,,,,,,,23.7,02.4,0680.9,30.9
2020-08-19T00:59:00Z,00000388,20000608,,,,,,,,,,23.8,02.4,0680.8,30.9
2020-08-19T01:00:00Z,00000388,20000608,,,,,,,,,,23.8,02.6,0680.8,30.9
2020-08-19T01:01:00Z,00000388,20000608,,,,,,,,,,23.9,02.6,0680.8,30.9
2020-08-19T01:02:00Z,00000388,20000608,,,,,,,,,,23.9,02.6,0680.8,30.9
2020-08-19T01:03:00Z,00000388,60000608,,,,,,,,,,23.9,02.6,0680.8,30.9
2020-08-19T01:04:00Z,00000388,40000608,0004.54,0002.38,0001.30,0000.24,0000.63,0000.49,0000.25,0000.36,0000.15,23.6,02.7,0681.7,30.9
2020-08-19T01:05:00Z,00000388,00000608,0002.51,0002.46,0001.21,0000.44,0000.85,0000.21,0000.17,0000.08,0000.09,23.6,02.9,0681.8,30.9
2020-08-19T01:06:00Z,00000388,00000608,0004.02,0003.00,0002.31,0000.63,0000.52,0000.71,0000.06,0000.04,0000.07,23.6,02.9,0681.8,30.9
2020-08-19T01:07:00Z,00000388,00000608,0004.12,0001.49,0001.07,0000.27,0000.31,0000.26,0000.06,-000.07,0000.07,23.6,02.8,0681.8,30.9
2020-08-19T01:08:00Z,00000388,00000608,0000.84,0000.47,0000.42,0000.24,0000.81,-000.31,-000.31,-000.26,-000.23,23.6,02.7,0681.9,30.9
2020-08-19T01:09:00Z,00000388,00000608,0001.23,0001.03,0000.64,-000.42,0000.74,0000.58,-000.18,0000.03,-000.04,23.6,02.6,0681.9,30.9
2020-08-19T01:10:00Z,00000388,00000608,0000.47,0000.54,0000.22,-000.35,0000.43,-000.12,-000.10,-000.06,-000.02,23.6,02.5,0681.8,30.9
2020-08-19T01:11:00Z,00000388,00000608,0002.94,0001.82,0000.71,0000.14,0000.72,0000.25,-000.04,-000.02,-000.04,23.6,02.4,0681.8,30.9
2020-08-19T01:12:00Z,00000388,00000608,0001.40,0001.44,0001.14,-000.24,0000.18,0000.02,0000.05,0000.12,0000.14,23.6,02.5,0681.8,30.9
2020-08-19T01:13:00Z,00000388,00000608,0002.71,0001.43,0001.67,0000.60,0001.12,0000.50,0000.21,0000.03,0000.12,23.6,02.5,0681.8,30.9
2020-08-19T01:14:00Z,00000388,00000608,0003.17,0002.40,0001.13,-000.80,0000.55,0000.07,0000.18,0000.26,0000.06,23.6,02.4,0681.8,30.9
2020-08-19T01:15:00Z,00000388,00000608,0002.64,0002.66,0002.23,0000.22,0000.60,0000.72,0000.20,0000.29,0000.06,23.6,02.5,0681.8,30.9
2020-08-19T01:16:00Z,00000388,00000608,0004.03,0002.47,0001.40,0000.19,0000.57,0000.33,-000.03,0000.05,0000.26,23.5,02.6,0681.8,30.9
2020-08-19T01:17:00Z,00000388,00000608,0003.32,0002.40,0001.32,0000.40,0000.66,0000.32,0000.32,0000.08,-000.00,23.5,02.7,0681.8,30.9
2020-08-19T01:18:00Z,00000388,00000608,0001.79,0001.26,0000.73,-000.26,0000.40,-000.14,-000.15,0000.01,0000.03,23.5,02.7,0681.8,30.9
2020-08-19T01:19:00Z,00000388,00000608,0000.85,0000.48,0000.72,-000.14,0000.28,0000.38,-000.12,-000.19,-000.10,23.5,02.6,0681.7,30.9
2020-08-19T01:20:00Z,00000388,00000608,0001.29,0001.18,0000.63,0000.01,0000.73,0000.07,0002.39,0002.08,0001.46,23.5,02.8,0681.8,30.9
2020-08-19T01:21:00Z,00000388,00000608,0000.75,0000.14,-000.42,0000.17,0000.41,0000.23,-001.69,-001.61,-000.99,23.5,03.8,0681.9,30.8
2020-08-19T01:22:00Z,00000388,00000608,0001.95,0001.19,0001.08,0000.76,0000.47,0000.30,-000.51,-000.27,-000.31,23.5,02.8,0681.8,30.8
2020-08-19T01:23:00Z,00000388,00000608,0004.19,0002.34,0001.17,-000.09,0000.59,0000.59,0000.10,-000.09,-000.01,23.5,02.4,0681.9,30.9
2020-08-19T01:24:00Z,00000388,00000608,0002.63,0001.42,0000.72,0000.09,0000.56,0000.19,0000.02,0000.27,0000.21,23.6,02.4,0681.9,30.9
2020-08-19T01:25:00Z,00000388,00000608,0000.59,0000.47,0000.36,-000.02,0000.51,0000.29,-000.13,-000.20,-000.16,23.6,02.4,0681.9,30.9
2020-08-19T01:26:00Z,00000388,00000608,0001.47,0001.32,0000.58,0000.38,0000.60,0000.27,-000.03,-000.11,-000.10,23.6,02.3,0681.9,30.9
2020-08-19T01:27:00Z,00000388,00000608,-000.54,-000.24,0000.18,-000.20,0000.34,0000.01,-000.20,-000.08,-000.10,23.6,02.2,0681.9,30.9
2020-08-19T01:28:00Z,00000388,00000608,-000.11,0000.76,0000.23,0000.16,0000.42,-000.19,-000.14,0000.01,-000.14,23.6,02.2,0681.9,30.9
2020-08-19T01:29:00Z,00000388,00000608,-000.12,-000.07,-000.10,0000.18,0000.45,0000.17,-000.08,-000.24,0000.02,23.6,02.1,0681.9,30.9
2020-08-19T01:30:00Z,00000388,00000608,0000.39,0000.22,-000.03,-000.36,0000.32,0000.29,-000.13,-000.10,-000.14,23.5,02.1,0681.9,30.9
2020-08-19T01:31:00Z,00000388,00000608,-000.47,-000.28,0000.25,0000.78,0000.60,0000.10,0000.04,-000.01,0000.08,23.6,02.0,0681.9,30.9
2020-08-19T01:32:00Z,00000388,00000608,0001.50,0000.93,0000.42,-000.06,0000.12,0000.32,-000.01,0000.11,0000.01,23.5,02.0,0681.9,30.9
2020-08-19T01:33:00Z,00000388,00000608,0001.02,0000.49,0000.18,-000.23,0000.15,0000.22,-000.12,-000.05,-000.07,23.5,02.0,0681.9,30.9
2020-08-19T01:34:00Z,00000388,00000608,0003.65,0001.87,0001.10,0001.67,0000.63,0000.58,0000.18,0000.18,0000.12,23.5,02.1,0681.9,30.9
2020-08-19T01:35:00Z,00000388,00000608,0003.94,0002.09,0000.89,0000.62,0000.40,0000.12,0000.34,0000.07,0000.11,23.5,02.1,0681.9,30.9
2020-08-19T01:36:00Z,00000388,00000608,0002.47,0002.48,0001.82,0001.22,0000.78,0000.46,0000.00,0000.07,0000.17,23.5,02.2,0681.9,30.9
2020-08-19T01:37:00Z,00000388,00000608,0003.18,0002.36,0000.95,0000.88,0000.63,0000.29,0000.43,0000.14,0000.12,23.5,02.2,0681.8,30.9
2020-08-19T01:38:00Z,00000388,00000608,0003.53,0001.79,0001.68,0000.92,0000.77,0000.54,0000.12,0000.34,0000.28,23.5,02.4,0681.8,30.9
2020-08-19T01:39:00Z,00000388,00000608,0003.62,0002.42,0001.90,0000.42,0000.52,0000.68,0002.95,0002.83,0001.80,23.5,03.7,0681.9,30.9
2020-08-19T01:40:00Z,00000388,00000608,0004.19,0002.12,0001.03,-000.39,0000.56,0000.33,-001.22,-001.41,-000.76,23.6,04.1,0682.0,30.9
2020-08-19T01:41:00Z,00000388,00000608,0002.87,0001.73,0001.80,0000.63,0000.81,0000.57,-000.34,-000.15,-000.13,23.6,03.2,0682.0,30.9
2020-08-19T01:42:00Z,00000388,00000608,0004.13,0002.54,0001.46,0000.40,0000.62,0000.33,0000.04,0000.05,-000.01,23.6,02.9,0682.0,30.9
2020-08-19T01:43:00Z,00000388,00000608,0004.25,0002.75,0002.03,0000.78,0000.75,0000.22,0000.16,0000.20,0000.09,23.5,02.9,0682.0,30.9
2020-08-19T01:44:00Z,00000388,00000608,0004.86,0003.61,0002.02,0000.55,0000.64,0000.90,0000.08,0000.06,0000.13,23.5,02.8,0681.9,30.9
2020-08-19T01:45:00Z,00000388,00000608,0006.28,0003.69,0002.96,0000.39,0000.62,0000.77,0000.11,0000.18,0000.08,23.5,02.8,0681.9,30.9
2020-08-19T01:46:00Z,00000388,00000608,0006.60,0004.34,0003.02,0000.40,0000.99,0000.66,0000.34,0000.19,0000.25,23.5,02.9,0681.9,30.9
2020-08-19T01:47:00Z,00000388,00000608,0006.90,0004.85,0002.68,0001.30,0000.81,0000.23,0000.33,0000.37,0000.26,23.5,03.0,0681.9,30.9
2020-08-19T01:48:00Z,00000388,00000608,0006.11,0004.21,0002.64,0000.17,0000.93,0000.57,0000.09,0000.11,0000.08,23.5,03.0,0681.9,30.9
2020-08-19T01:49:00Z,00000388,00000608,0004.17,0001.80,0001.52,0000.05,0000.70,0000.32,0000.04,0000.08,0000.02,23.5,02.9,0681.9,30.8
2020-08-19T01:50:00Z,00000388,00000608,0004.00,0002.66,0001.69,-000.10,0000.49,0000.40,-000.07,-000.00,-000.03,23.5,02.9,0681.9,30.8
2020-08-19T01:51:00Z,00000388,00000608,0005.31,0003.80,0002.56,0000.93,0000.95,0000.39,0000.34,0000.22,0000.34,23.5,02.8,0681.9,30.8
2020-08-19T01:52:00Z,00000388,00000608,0003.27,0001.89,0001.16,0000.23,0001.08,0000.48,0000.02,-000.08,-000.03,23.4,02.9,0681.9,30.9
2020-08-19T01:53:00Z,00000388,00000608,0002.71,0002.43,0000.85,0000.43,0000.71,0000.39,0000.06,0000.33,0000.08,23.5,02.9,0681.9,30.9
2020-08-19T01:54:00Z,00000388,00000608,0002.55,0001.10,0000.69,0000.14,0000.31,0000.31,0000.18,-000.02,0000.07,23.5,03.0,0681.9,30.9
2020-08-19T01:55:00Z,00000388,00000608,0002.15,0001.15,0000.76,-000.40,0000.88,0000.23,0000.05,0000.06,0000.12,23.6,03.0,0681.9,30.9
2020-08-19T01:56:00Z,00000388,00000608,0000.68,0000.69,-000.07,0001.36,0000.50,0000.07,0000.06,0000.08,-000.06,23.6,03.1,0681.9,30.9
2020-08-19T01:57:00Z,00000388,40000608,,,,,,,,,,23.6,03.0,0682.0,30.9
2020-08-19T01:58:00Z,00000388,60000608,,,,,,,,,,23.7,02.9,0680.9,30.9
2020-08-19T01:59:00Z,00000388,20000608,,,,,,,,,,23.8,02.8,0680.8,30.9
2020-08-19T02:00:00Z,00000388,20000608,,,,,,,,,,23.8,02.8,0680.8,30.9
2020-08-19T02:01:00Z,00000388,20000608,,,,,,,,,,23.8,02.8,0680.8,30.9
2020-08-19T02:02:00Z,00000388,20000608,,,,,,,,,,23.8,02.8,0680.8,30.9
2020-08-19T02:03:00Z,00000388,60000608,,,,,,,,,,23.8,02.8,0680.8,30.9
2020-08-19T02:04:00Z,00000388,40000608,0002.19,0000.99,0000.52,0001.20,0000.14,-000.11,-000.18,-000.04,-000.10,23.6,02.8,0681.8,30.9
2020-08-19T02:05:00Z,00000388,00000608,0001.32,0001.38,0000.81,0000.84,-000.29,0000.02,-000.09,0000.10,-000.08,23.6,02.7,0681.8,30.9
2020-08-19T02:06:00Z,00000388,00000608,0003.19,0001.19,0001.04,0000.42,0000.39,-000.10,0000.16,-000.08,0000.23,23.5,02.7,0681.8,30.9
2020-08-19T02:07:00Z,00000388,00000608,0001.67,0000.67,0000.62,0000.46,0000.38,0000.36,0000.15,0000.11,-000.08,23.5,02.6,0681.8,30.8
2020-08-19T02:08:00Z,00000388,00000608,0000.62,0000.72,0000.27,0000.70,-000.07,0000.20,-000.06,0000.02,0000.04,23.6,02.7,0681.8,30.9
2020-08-19T02:09:00Z,00000388,00000608,0001.80,0000.87,0000.56,0001.13,0000.37,0000.61,-000.02,-000.07,-000.14,23.6,02.7,0681.9,30.9
2020-08-19T02:10:00Z,00000388,00000608,0000.09,0000.87,0000.53,0000.88,0000.04,0000.08,-000.04,-000.04,0000.19,23.6,02.7,0681.9,30.9
2020-08-19T02:11:00Z,00000388,00000608,0000.22,-000.15,0000.44,0001.38,0000.35,0000.10,-000.09,-000.04,-000.19,23.6,02.6,0681.9,30.9
2020-08-19T02:12:00Z,00000388,00000608,0002.05,0000.63,0000.08,0000.65,-000.15,-000.51,-000.05,0000.10,0000.02,23.6,02.5,0681.8,30.9
2020-08-19T02:13:00Z,00000388,00000608,0000.80,-000.03,0000.42,0000.59,0000.28,0000.24,-000.11,-000.08,-000.03,23.6,02.4,0681.9,30.9
2020-08-19T02:14:00Z,00000388,00000608,0001.29,0000.03,0000.70,0001.35,0000.11,0000.29,-000.01,-000.26,-000.06,23.5,02.4,0681.9,30.9
2020-08-19T02:15:00Z,00000388,00000608,0001.06,0000.51,0000.63,0000.65,0000.24,-000.09,-000.14,0000.10,0000.15,23.5,02.4,0681.9,30.9
2020-08-19T02:16:00Z,00000388,00000608,0000.55,0000.65,0000.93,0000.90,0000.23,-000.02,0000.15,0000.05,-000.12,23.5,02.3,0681.9,30.9
2020-08-19T02:17:00Z,00000388,00000608,0001.34,0000.69,0000.43,0000.53,0000.29,0000.23,-000.04,0000.13,0000.13,23.5,02.3,0681.9,30.9
2020-08-19T02:18:00Z,00000388,00000608,0000.75,0000.19,0000.65,0000.32,-000.09,-000.36,0000.05,-000.05,-000.05,23.5,02.3,0681.9,30.9
2020-08-19T02:19:00Z,00000388,00000608,0001.13,0000.76,0000.93,0000.86,0000.15,0000.14,-000.22,-000.21,-000.16,23.5,02.3,0681.9,30.9
2020-08-19T02:20:00Z,00000388,00000608,0000.37,0000.12,0000.19,0001.04,0000.21,-000.18,-000.11,0000.08,-000.01,23.5,02.1,0681.8,30.9
2020-08-19T02:21:00Z,00000388,00000608,0001.05,0000.10,-000.06,0000.14,0000.12,-000.19,-000.01,-000.25,-000.13,23.5,02.1,0681.8,30.9
2020-08-19T02:22:00Z,00000388,00000608,0000.01,-000.08,0000.02,0000.15,-000.04,-000.26,-000.12,0000.05,0000.00,23.5,02.1,0681.9,30.9
2020-08-19T02:23:00Z,00000388,00000608,0001.12,0000.29,0000.28,0001.58,0000.43,-000.01,0000.15,0000.04,0000.07,23.5,02.0,0681.9,30.9
2020-08-19T02:24:00Z,00000388,00000608,0000.60,0000.32,0000.24,0001.74,0000.29,0000.32,-000.05,0000.13,0000.09,23.5,02.1,0681.9,30.9
2020-08-19T02:25:00Z,00000388,00000608,0000.86,0000.11,0000.39,0001.09,0000.29,-000.42,0000.14,-000.09,-000.04,23.6,02.1,0682.0,30.9
2020-08-19T02:26:00Z,00000388,00000608,0002.28,0000.52,0000.36,0000.65,0000.10,-000.12,-000.03,0000.19,0000.12,23.6,02.2,0681.9,30.9
2020-08-19T02:27:00Z,00000388,00000608,0001.57,0000.85,0000.47,0001.27,0000.12,-000.33,0000.03,-000.00,-000.17,23.6,02.1,0681.9,30.9
2020-08-19T02:28:00Z,00000388,00000608,0001.80,0000.92,0000.49,0000.27,-000.06,0000.35,0000.10,-000.10,0000.21,23.5,02.1,0681.9,30.9
2020-08-19T02:29:00Z,00000388,00000608,0002.92,0001.49,0001.38,0001.46,0000.48,0000.08,0000.03,0000.07,0000.06,23.5,02.1,0681.9,30.9
2020-08-19T02:30:00Z,00000388,00000608,0000.33,0000.59,0000.49,0000.34,-000.13,-000.11,0000.07,0000.16,-000.10,23.5,02.1,0681.9,30.9
2020-08-19T02:31:00Z,00000388,00000608,0000.41,0000.28,0000.43,0001.54,0000.30,0000.10,-000.14,-000.07,-000.00,23.5,02.1,0681.9,30.9
2020-08-19T02:32:00Z,00000388,00000608,0001.30,0000.24,0000.26,0001.28,0000.24,-000.35,0000.13,0000.00,0000.16,23.5,02.1,0681.9,30.9
2020-08-19T02:33:00Z,00000388,00000608,0001.15,0000.05,0000.17,0000.81,0000.16,-000.45,-000.06,0000.05,-000.11,23.5,02.1,0681.8,30.9
2020-08-19T02:34:00Z,00000388,00000608,0000.43,0000.28,0000.08,0001.05,0000.35,0000.00,0000.07,-000.01,0000.08,23.5,02.1,0681.8,30.9
2020-08-19T02:35:00Z,00000388,00000608,0001.12,0000.81,0000.81,0001.22,0000.20,0000.18,0000.24,0000.26,0000.12,23.5,02.2,0681.8,30.9
2020-08-19T02:36:00Z,00000388,00000608,0001.40,0000.75,0000.32,0000.37,0000.01,0000.02,0000.02,-000.14,0000.16,23.5,02.3,0681.8,30.9
2020-08-19T02:37:00Z,00000388,00000608,0001.35,0000.50,-000.04,0001.23,0000.12,-000.12,0000.23,0000.12,-000.15,23.5,02.2,0681.8,30.9
2020-08-19T02:38:00Z,00000388,00000608,0001.53,0000.63,-000.15,0001.04,-000.44,0000.01,-000.15,0000.07,0000.16,23.5,02.3,0681.8,30.9
2020-08-19T02:39:00Z,00000388,00000608,0001.06,0000.54,0000.39,0000.47,0000.48,-000.13,0000.03,0000.10,0000.11,23.6,02.3,0681.8,30.9
2020-08-19T02:40:00Z,00000388,00000608,0001.11,0000.35,0000.55,0000.90,0000.62,-000.01,0000.14,-000.08,-000.08,23.6,02.4,0681.8,30.9
2020-08-19T02:41:00Z,00000388,00000608,0001.63,0000.95,0001.14,-000.08,0000.57,0000.22,-000.03,0000.24,0000.11,23.6,02.3,0681.8,30.9
2020-08-19T02:42:00Z,00000388,00000608,0001.76,0000.57,0000.24,0000.39,0000.16,-000.45,0000.10,0000.12,0000.00,23.6,02.4,0681.8,30.9
2020-08-19T02:43:00Z,00000388,00000608,0001.49,0000.39,0000.64,0000.55,0000.05,0000.15,0000.07,-000.06,-000.00,23.6,02.3,0681.7,30.9
2020-08-19T02:44:00Z,00000388,00000608,0000.93,0000.18,0000.13,0000.70,-000.09,-000.15,0000.05,-000.18,-000.02,23.5,02.3,0681.8,30.9
2020-08-19T02:45:00Z,00000388,00000608,0000.97,0000.08,0000.36,0000.72,-000.27,0000.16,-000.10,0000.20,0000.00,23.5,02.3,0681.7,30.9
2020-08-19T02:46:00Z,00000388,00000608,0000.34,0000.13,0000.34,0000.64,0000.06,0000.18,-000.12,-000.15,-000.01,23.5,02.2,0681.7,30.9
2020-08-19T02:47:00Z,00000388,00000608,0001.05,0000.25,0000.31,0000.50,0000.04,-000.31,-000.11,-000.10,-000.10,23.5,02.2,0681.8,30.9
2020-08-19T02:48:00Z,00000388,00000608,0000.91,0000.28,0000.27,0001.64,0000.19,0000.14,0000.09,0000.09,-000.03,23.5,02.1,0681.7,30.9
2020-08-19T02:49:00Z,00000388,00000608,0000.27,0000.75,0000.27,0000.79,-000.12,0000.27,0000.03,0000.03,0000.21,23.5,02.2,0681.7,30.9
2020-08-19T02:50:00Z,00000388,00000608,0000.66,-000.03,-000.05,0000.43,-000.41,-000.18,-000.05,-000.02,-000.05,23.5,02.2,0681.8,30.9
2020-08-19T02:51:00Z,00000388,00000608,0001.06,0000.41,0000.23,0000.42,-000.07,0000.10,0000.10,-000.11,-000.09,23.5,02.2,0681.8,30.9
2020-08-19T02:52:00Z,00000388,00000608,0000.90,-000.23,0000.40,0000.71,0000.23,-000.34,-000.01,0000.01,0000.08,23.5,02.2,0681.8,30.9
2020-08-19T02:53:00Z,00000388,00000608,0001.20,0000.61,0000.21,0000.21,-000.06,-000.44,-000.02,0000.15,0000.01,23.5,02.2,0681.8,30.9
2020-08-19T02:54:00Z,00000388,00000608,0001.61,0000.35,-000.08,0000.29,0000.06,0000.38,0000.02,0000.09,0000.02,23.5,02.2,0681.9,30.9
2020-08-19T02:55:00Z,00000388,00000608,0001.03,0000.47,0000.46,0000.34,0000.35,0000.26,0000.04,-000.03,0000.09,23.5,02.1,0681.9,30.9
2020-08-19T02:56:00Z,00000388,00000608,0003.26,0001.26,0000.82,0001.25,0000.19,0000.49,0000.04,0000.14,-000.03,23.6,02.2,0681.8,30.9
2020-08-19T02:57:00Z,00000388,40000608,,,,,,,,,,23.6,02.4,0681.9,30.9
2020-08-19T02:58:00Z,00000388,60000608,,,,,,,,,,23.7,02.5,0680.9,30.9
2020-08-19T02:59:00Z,00000388,20000608,,,,,,,,,,23.8,02.4,0680.8,30.9
2020-08-19T03:00:00Z,00000388,20000608,,,,,,,,,,23.8,02.4,0680.8,30.9
2020-08-19T03:01:00Z,00000388,20000608,,,,,,,,,,23.8,02.4,0680.8,30.9
2020-08-19T03:02:00Z,00000388,20000608,,,,,,,,,,23.8,02.2,0680.8,30.9
2020-08-19T03:03:00Z,00000388,60000608,,,,,,,,,,23.8,02.2,0680.8,30.9
2020-08-19T03:04:00Z,00000388,40000608,0003.06,0002.64,0001.97,0000.91,0000.47,-000.12,0000.18,0000.16,0000.21,23.6,02.4,0681.7,30.8
2020-08-19T03:05:00Z,00000388,00000608,0002.77,0001.56,0001.79,0000.48,-000.02,0000.51,0000.05,0000.05,0000.05,23.5,02.4,0681.7,30.9
2020-08-19T03:06:00Z,00000388,00000608,0002.21,0001.58,0001.18,0000.33,0000.37,0000.04,0000.11,-000.13,-000.03,23.5,02.4,0681.7,30.9
2020-08-19T03:07:00Z,00000388,00000608,0001.44,0001.23,0001.11,0000.79,0000.68,0000.33,-000.07,0000.05,-000.03,23.5,02.5,0681.7,30.9
2020-08-19T03:08:00Z,00000388,00000608,0000.07,0000.40,0000.27,-000.56,-000.18,0000.04,0000.02,0000.01,0000.01,23.5,02.4,0681.7,30.9
2020-08-19T03:09:00Z,00000388,00000608,0000.30,0000.11,0000.39,-000.17,0000.24,0000.34,-000.11,-000.05,-000.06,23.5,02.3,0681.7,30.9
2020-08-19T03:10:00Z,00000388,00000608,-000.34,-000.50,0000.13,-000.22,0000.11,-000.25,-000.02,-000.01,0000.09,23.5,02.4,0681.7,30.9